Lapse_Rate
7.2 7.2 6.9 6.8 6.5 6.2 5.9 5.8 5.7 5.6 5.5 5.4 5.4 5.5 5.5 5.6 5.6 5.6 5.5 5.9 6.1 6.1 6.1 6.2 6.1 6.0 6.0 6.1 6.4 6.5 6.5 6.5 6.6 6.7 6.7 6.7 6.9 6.9 6.8 6.7 6.7 6.5 6.2
7.1 7.1 6.8 6.7 6.6 6.3 6.1 5.9 5.8 5.7 5.6 5.5 5.4 5.5 5.6 5.7 5.7 5.7 5.6 6.0 6.1 6.1 6.0 6.1 6.0 6.0 6.0 5.8 5.9 6.1 6.2 6.3 6.2 6.3 6.5 6.7 6.7 6.8 6.9 6.9 6.7 6.6 6.5
7.1 7.0 6.8 6.7 6.6 6.4 6.2 6.1 6.0 5.7 5.7 5.6 5.5 5.5 5.6 5.8 5.9 5.8 5.7 5.9 6.1 6.1 6.0 6.0 5.9 5.7 5.7 5.9 5.9 6.0 6.0 6.0 6.1 6.1 6.1 6.1 6.2 6.4 6.5 6.5 6.7 6.5 6.5
6.9 6.9 6.8 6.7 6.4 6.4 6.3 6.1 6.1 5.9 5.8 5.7 5.6 5.6 5.7 5.8 5.8 5.8 5.8 6.0 6.1 6.1 5.9 5.9 5.8 5.7 5.6 5.6 5.6 5.8 5.9 5.9 5.9 6.1 6.0 6.1 6.0 5.9 6.2 6.3 6.3 6.4 6.4
6.8 6.7 6.5 6.6 6.5 6.6 6.3 6.4 6.3 6.3 6.0 5.8 5.7 5.7 5.8 5.9 5.9 6.0 6.0 6.1 6.2 6.0 5.9 5.8 5.7 5.7 5.7 5.7 5.7 5.6 5.6 5.5 5.6 5.9 6.1 6.1 6.1 6.0 6.0 6.2 6.1 6.1 6.3
6.8 6.8 6.7 6.6 6.4 6.4 6.3 6.4 6.3 6.2 6.1 5.9 5.9 5.8 5.9 6.0 6.0 6.0 6.0 6.1 6.1 5.9 5.8 5.5 5.6 5.6 5.7 5.7 5.7 5.6 5.6 5.5 5.5 5.6 5.8 6.0 6.1 6.1 6.1 6.3 6.3 6.2 6.1
6.7 6.9 6.7 6.5 6.4 6.4 6.3 6.3 6.3 6.2 6.1 6.0 6.0 5.9 6.0 6.0 6.1 6.0 5.9 6.0 6.0 5.7 5.5 5.4 5.4 5.5 5.5 5.7 5.7 5.8 5.8 5.7 5.6 5.6 5.7 5.7 5.8 6.0 6.2 6.3 6.3 6.2 6.3
6.9 6.8 6.7 6.8 6.7 6.5 6.5 6.5 6.6 6.5 6.3 6.2 6.2 6.1 6.1 6.2 6.3 6.4 6.1 5.9 5.8 5.6 5.5 5.4 5.5 5.6 5.6 5.7 5.9 6.0 5.9 5.9 5.8 5.8 5.7 5.7 5.6 5.5 5.4 5.6 6.0 6.3 6.3
6.6 6.4 6.6 6.6 6.9 6.2 6.3 5.9 6.3 6.2 6.2 6.2 6.2 6.2 6.2 6.2 6.2 6.3 6.2 5.9 5.7 5.7 5.6 5.4 5.5 5.7 5.8 5.9 5.9 6.0 5.9 5.8 5.7 5.6 5.7 5.7 5.8 5.9 5.7 5.4 5.3 5.4 5.9
6.4 6.5 6.7 6.3 6.0 5.9 5.8 5.5 5.7 5.9 6.0 6.1 6.1 6.1 6.2 6.3 6.3 6.3 6.2 6.1 5.9 5.8 5.7 5.5 5.5 5.5 5.5 5.7 5.8 5.7 5.6 5.5 5.4 5.6 5.6 5.7 5.7 5.8 6.0 5.9 5.6 5.3 5.4
6.3 6.1 6.3 6.2 5.8 6.0 5.7 5.7 5.7 5.8 5.9 6.0 6.1 6.0 6.1 6.2 6.3 6.3 6.2 6.0 5.7 5.8 5.8 5.8 5.8 5.7 5.7 5.6 5.5 5.4 5.4 5.3 5.4 5.4 5.4 5.4 5.5 5.7 5.9 6.1 6.1 5.8 5.5
6.0 6.1 6.0 6.0 5.9 5.9 6.1 5.7 5.7 5.7 5.8 6.0 5.9 5.9 6.2 6.4 6.5 6.6 6.5 6.3 6.3 6.2 5.9 6.0 5.9 5.8 5.6 5.5 5.5 5.6 5.5 5.5 5.4 5.5 5.5 5.4 5.4 5.7 5.8 5.9 6.0 6.0 5.8
5.8 5.8 5.8 5.7 5.9 6.0 5.7 5.6 5.7 5.5 5.4 5.4 6.0 6.5 6.5 6.7 6.5 6.5 6.3 6.2 6.2 6.3 6.2 6.1 6.0 5.5 5.8 5.6 5.5 5.4 5.3 5.4 5.4 5.2 5.3 5.3 5.5 5.7 5.9 6.1 6.0 5.9 5.9
5.9 5.8 5.6 5.6 5.9 5.8 5.7 5.6 5.4 5.2 5.5 5.8 5.8 5.8 6.0 6.1 6.1 6.2 6.4 6.3 6.1 6.0 5.9 5.7 5.5 5.5 5.7 5.8 5.7 5.7 5.8 5.7 5.5 5.4 5.5 5.6 5.7 5.9 6.1 6.2 6.1 6.0 6.0
5.8 5.7 5.6 5.3 5.3 5.2 5.3 5.2 5.1 5.3 5.5 5.6 5.8 5.6 5.6 6.0 5.7 5.9 5.9 5.7 5.7 5.7 5.7 5.8 5.9 5.9 6.0 6.1 6.3 6.3 6.3 6.1 5.9 6.0 5.9 5.9 6.2 6.3 6.3 6.4 6.3 6.3 6.2
5.4 5.1 5.0 5.1 5.2 5.1 5.1 5.3 5.1 5.2 5.3 5.6 5.8 5.4 5.5 5.5 5.7 5.7 5.6 5.5 5.4 5.6 5.7 6.0 6.2 6.4 6.4 6.4 6.5 6.6 6.6 6.5 6.4 6.3 6.2 6.2 6.3 6.4 6.4 6.3 6.1 5.9 5.8
5.0 4.9 5.0 5.0 4.8 4.9 5.1 5.1 5.0 5.1 5.2 5.1 5.2 5.4 5.4 5.5 5.4 5.3 5.2 5.2 5.4 5.7 6.0 6.1 6.2 6.4 6.6 6.9 6.8 6.6 6.5 6.5 6.5 6.4 6.3 6.2 6.4 6.3 6.4 6.2 5.9 5.9 5.6
5.2 5.1 5.1 5.1 4.9 5.2 5.2 4.8 4.6 4.7 4.7 4.9 5.1 5.0 5.3 5.3 5.3 5.3 5.5 5.6 5.7 5.9 6.1 6.1 6.2 6.4 6.6 6.7 6.7 6.7 6.7 6.7 6.7 6.8 6.7 6.6 6.6 6.6 6.4 6.2 6.1 6.1 5.8
5.0 5.1 5.1 5.0 5.0 4.8 4.8 4.8 4.9 4.6 4.3 4.6 5.0 5.3 5.5 5.6 5.5 5.4 5.5 5.8 5.9 5.9 5.9 6.0 6.1 6.1 6.2 6.3 6.4 6.3 6.3 6.4 6.6 6.8 6.9 6.9 6.8 6.6 6.5 6.3 6.4 6.3 6.3
4.6 4.7 4.6 4.4 4.3 4.6 4.9 5.0 5.0 5.0 5.1 5.2 5.2 5.3 5.3 5.3 5.5 5.9 5.9 6.0 6.0 6.2 6.0 6.0 5.8 5.7 5.7 5.9 5.9 5.9 5.7 5.9 6.1 6.1 6.2 6.3 6.4 6.3 6.2 6.1 6.0 6.1 6.2
4.3 4.1 4.0 4.3 4.8 5.1 5.0 5.0 5.1 5.1 5.2 5.5 5.7 5.9 5.9 5.8 6.0 6.0 6.2 6.2 6.2 6.1 6.1 5.9 5.8 5.7 5.5 5.6 5.6 5.6 5.6 5.7 5.7 5.7 5.8 5.9 5.8 5.8 6.0 5.9 5.8 5.9 5.7
4.9 5.0 5.0 4.8 4.8 5.1 5.2 5.3 5.2 5.4 5.8 5.9 5.8 5.7 5.8 5.9 6.1 6.2 6.3 6.1 6.1 6.0 6.0 5.9 5.9 5.7 5.4 5.1 5.3 5.4 5.5 5.5 5.5 5.6 5.7 5.6 5.5 5.5 5.7 5.9 5.9 5.7 5.5
4.9 4.9 5.2 5.3 5.4 5.4 5.5 5.6 5.6 5.8 5.9 5.8 5.8 5.9 6.0 6.0 5.9 6.0 6.1 6.0 5.9 5.9 5.9 5.8 5.7 5.6 5.2 5.1 5.1 5.2 5.2 5.2 5.2 5.3 5.5 5.6 5.6 5.5 5.6 6.0 6.0 5.6 5.3
5.5 5.6 5.6 5.7 5.7 5.7 5.7 5.7 5.8 5.7 6.0 6.1 6.0 5.8 5.8 5.8 5.7 5.7 5.6 5.6 5.7 5.7 5.6 5.5 5.4 5.4 5.2 5.0 5.0 5.1 5.1 5.2 5.3 5.3 5.3 5.2 5.2 5.3 5.2 5.8 6.1 5.7 5.5
5.8 5.9 6.0 5.8 5.7 5.7 5.9 6.0 5.9 5.9 5.9 5.8 5.7 5.6 5.5 5.5 5.4 5.3 5.4 5.4 5.5 5.4 5.4 5.3 5.2 5.2 5.2 5.1 5.0 5.1 5.0 5.0 5.0 5.1 5.2 5.4 5.3 5.4 5.2 5.2 6.1 6.0 5.7
6.0 6.0 5.8 5.7 5.8 6.1 6.1 5.7 5.5 5.6 5.6 5.5 5.4 5.4 5.3 5.2 5.1 5.1 5.2 5.1 5.0 5.1 5.2 5.2 5.1 5.1 5.2 5.3 5.2 5.1 4.7 4.7 4.9 4.8 4.8 5.1 5.2 5.3 5.3 5.2 5.8 5.9 5.9
Wind_Speed
5 7 8 8 8 7 8 8 8 6 5 3 3 1 2 2 3 6 8 9 10 11 10 8 7 7 6 4 6 3 5 7 6 3 2 4 6 9 7 8 8 11 14
7 7 8 9 10 9 8 7 7 7 5 3 2 2 3 2 2 3 7 8 10 8 9 8 5 7 5 7 7 6 3 3 6 3 1 3 1 4 7 6 7 9 11
11 10 11 11 8 9 9 8 7 7 5 5 4 3 4 3 1 1 2 5 8 9 10 10 8 6 4 4 4 5 6 3 3 6 2 2 1 2 3 6 6 7 6
7 7 9 9 11 8 7 7 7 7 5 6 4 5 3 3 3 2 2 2 6 8 9 9 8 7 5 5 4 4 4 3 4 2 4 3 1 2 2 2 3 4 5
8 9 11 10 6 7 7 6 7 6 5 5 5 4 3 2 2 3 5 3 4 7 7 8 8 6 5 4 5 5 5 3 2 2 2 2 2 2 1 3 1 3 2
6 6 6 8 7 6 6 6 7 5 5 5 5 6 6 6 4 3 3 2 2 2 5 7 7 6 6 4 4 3 4 3 3 2 3 1 1 1 1 1 2 2 1
6 6 6 6 7 7 6 6 6 5 4 5 4 5 6 6 7 5 4 4 2 1 2 2 3 3 3 4 4 3 3 3 2 2 1 1 0 0 0 0 2 1 2
9 9 7 6 6 5 5 5 6 5 5 4 4 4 5 3 3 4 3 3 3 2 3 3 3 3 4 4 4 2 2 2 2 3 2 1 1 1 0 1 1 2 2
11 11 11 10 6 6 3 3 5 4 4 4 4 4 4 5 4 5 4 3 2 2 2 1 2 3 3 3 3 2 3 2 2 2 2 2 2 2 2 1 2 3 1
11 11 11 10 9 9 6 4 1 3 3 3 3 2 2 3 4 4 4 4 3 2 2 0 0 1 1 1 2 1 2 2 1 1 1 1 2 2 2 1 1 1 3
8 8 10 9 10 10 10 8 9 8 5 3 3 3 2 2 3 3 3 3 2 1 1 0 1 2 2 2 2 2 3 2 2 2 2 3 2 2 2 2 1 2 2
8 9 9 9 11 11 10 8 8 8 8 7 6 5 5 4 3 2 2 1 3 2 1 1 2 3 3 3 3 3 3 4 5 5 4 5 2 3 2 2 3 2 2
9 8 9 9 9 7 7 6 7 7 5 5 5 5 5 5 4 2 2 3 2 1 3 3 3 4 4 4 4 4 5 5 5 5 5 5 5 4 3 3 3 2 2
7 8 7 6 6 6 6 8 8 8 7 6 5 4 3 4 5 3 3 5 3 2 3 4 4 4 4 4 5 5 5 5 5 5 5 5 5 5 4 4 4 4 3
7 7 7 5 5 5 6 6 6 7 7 6 5 4 3 3 4 3 3 3 2 3 4 5 4 4 4 4 5 6 6 6 6 5 5 4 7 12 10 4 5 5 4
7 7 5 4 5 5 6 7 6 6 5 5 5 5 5 5 4 4 4 3 3 3 4 4 4 5 5 12 15 12 7 8 7 7 6 6 11 11 17 17 16 11 6
6 5 5 5 4 5 5 5 5 4 4 5 5 5 4 5 5 5 4 4 4 4 4 5 5 6 5 14 17 17 8 7 8 7 8 6 5 10 5 13 18 15 16
5 5 4 4 3 3 4 4 5 4 4 4 4 4 5 5 5 5 5 5 4 5 4 5 6 6 6 15 17 18 10 7 7 7 7 7 6 7 8 7 8 7 6
4 4 3 2 3 3 3 4 4 4 4 5 5 5 5 5 5 5 5 5 5 5 5 6 6 6 6 15 18 17 9 9 7 7 7 8 8 13 17 11 10 10 8
4 4 5 4 4 5 5 3 3 4 4 5 6 6 6 6 6 6 6 4 4 7 6 8 6 10 7 14 19 17 8 8 7 6 8 18 13 19 20 11 11 9 9
5 5 5 3 4 4 5 5 3 4 4 7 7 7 6 6 6 5 3 4 6 7 5 7 6 7 9 9 20 21 11 9 8 8 7 7 19 21 22 22 12 12 10
4 3 3 4 4 3 2 5 5 5 6 6 7 8 7 7 8 7 6 7 6 6 6 6 6 6 7 15 17 21 21 19 11 11 8 9 20 21 20 17 22 23 19
5 4 3 3 4 5 4 5 7 8 6 6 8 7 7 8 8 9 7 5 5 4 6 6 6 7 7 7 19 20 21 21 13 8 11 20 23 23 19 22 23 21 8
5 2 2 5 8 6 7 6 8 6 6 8 7 7 5 9 6 5 6 6 3 5 7 7 8 8 7 8 8 8 8 15 13 14 10 12 14 10 12 14 13 5 4
4 3 5 7 7 6 6 7 8 6 7 7 6 6 7 7 6 7 6 6 7 8 8 8 9 9 9 9 15 14 9 9 12 12 6 6 6 7 6 4 5 4 3
4 6 6 7 7 6 8 8 6 6 6 7 7 6 6 5 6 6 7 15 19 21 22 24 18 10 19 24 24 25 24 24 23 12 9 8 7 7 7 6 5 6 10
Wind_Direction
205 164 165 155 145 153 155 160 153 161 141 138 133 143 117 81 43 51 51 55 59 60 62 60 52 43 56 34 20 4 29 24 0 17 42 50 52 53 42 41 37 33 34
164 164 158 161 169 165 168 165 167 163 167 150 167 140 143 111 105 70 53 56 60 57 58 59 50 39 43 34 26 25 11 22 16 32 353 21 354 47 51 33 39 36 31
179 173 173 176 163 173 176 172 169 166 165 158 116 85 84 81 93 35 44 36 63 62 68 65 61 52 49 54 42 29 40 11 355 28 56 32 21 324 64 38 42 28 32
160 171 171 173 183 182 164 158 156 161 160 154 148 162 167 162 186 150 123 71 71 74 69 68 61 62 54 46 29 34 43 51 27 341 13 26 351 355 338 103 70 58 31
162 176 184 183 159 148 162 155 152 155 151 158 174 173 153 130 130 125 125 108 72 66 65 67 58 47 45 39 44 32 30 41 65 37 351 359 333 22 323 314 36 70 45
128 130 125 127 135 139 146 153 153 157 154 149 154 168 169 158 145 151 148 150 106 70 60 67 69 58 46 34 22 23 42 38 50 37 39 48 10 334 359 328 341 300 326
83 103 123 137 140 152 153 153 155 156 145 136 139 160 164 166 169 169 166 165 155 143 90 89 72 58 46 41 28 25 27 21 38 20 3 3 319 268 235 145 278 296 307
52 52 59 92 105 121 144 148 157 145 153 147 139 143 151 155 156 161 160 166 166 174 166 134 98 70 53 33 25 16 350 18 10 357 357 316 329 357 167 188 160 322 308
46 48 43 35 70 101 112 154 160 153 162 163 151 153 155 156 160 151 143 150 143 155 150 98 62 52 52 40 39 17 341 357 349 332 338 331 325 351 317 267 191 169 278
58 51 48 46 53 53 47 40 113 160 160 158 165 162 139 123 127 128 140 153 157 123 129 130 78 357 19 19 17 345 324 306 284 231 307 330 311 328 333 285 260 216 194
66 58 56 51 42 48 46 34 33 34 34 33 31 70 75 104 121 128 142 143 122 130 205 252 317 310 318 323 323 300 285 272 272 276 250 266 280 292 311 301 277 248 186
72 64 58 57 54 42 38 38 41 43 35 39 48 42 34 17 9 7 41 118 152 109 353 330 315 302 294 278 273 282 299 279 265 258 252 257 253 265 279 284 268 252 235
80 67 58 45 52 49 39 34 45 41 25 30 34 29 18 356 324 319 300 145 80 347 297 297 290 295 288 285 276 266 273 271 266 259 245 249 242 253 242 253 263 252 253
88 88 77 57 49 46 37 29 26 25 21 19 17 10 1 356 347 64 7 300 268 262 274 275 274 270 270 264 264 261 261 264 260 251 241 244 240 243 248 250 251 250 246
85 69 67 55 53 45 32 32 25 10 359 354 357 354 333 312 316 253 244 257 270 255 256 266 265 270 269 263 249 248 245 245 250 250 249 245 249 256 248 231 237 229 230
88 73 59 49 43 34 28 19 16 9 357 349 345 342 345 333 330 316 307 295 278 275 278 275 275 277 278 277 277 279 264 248 230 240 247 244 262 272 272 263 249 219 216
97 85 67 41 30 22 12 4 359 359 9 354 355 353 345 345 343 330 318 307 285 275 265 260 260 262 268 280 280 280 277 258 239 233 241 244 242 259 250 267 269 268 262
75 76 50 25 26 22 13 340 342 348 348 351 338 333 336 329 328 323 312 307 289 280 274 268 264 262 264 282 283 278 272 267 240 233 228 228 237 242 255 254 255 250 252
57 54 37 355 359 357 341 343 346 345 344 343 331 316 319 316 310 304 304 297 290 283 269 271 258 258 257 281 285 283 283 272 255 233 228 226 231 245 260 254 238 240 245
21 23 4 358 6 341 342 346 333 353 346 333 315 310 307 301 289 290 289 276 277 286 280 280 266 260 268 278 284 282 274 266 261 243 236 251 238 239 253 246 246 226 230
6 16 357 329 308 330 340 327 333 325 308 314 305 301 293 293 281 280 274 281 280 282 277 278 272 265 266 268 280 277 268 256 258 253 244 235 251 258 259 256 231 224 223
341 337 308 306 296 305 301 302 303 305 311 303 306 299 298 300 308 302 294 285 278 278 278 279 283 273 261 273 278 276 270 263 254 253 251 248 251 254 256 257 249 233 231
321 298 284 297 298 309 296 303 306 305 294 302 299 292 290 299 304 299 292 290 288 279 284 284 284 281 275 265 274 277 277 274 271 255 252 257 251 250 255 256 248 243 228
304 264 296 313 301 289 297 283 289 298 298 295 289 284 284 297 298 306 293 288 269 274 280 278 276 273 271 267 262 260 265 274 280 279 279 270 268 286 265 244 250 239 206
297 301 295 286 278 280 274 276 294 293 287 288 284 285 290 286 285 281 281 278 272 265 266 260 255 258 258 255 260 254 241 241 244 246 244 244 248 252 251 265 219 162 176
281 285 277 282 287 287 287 289 286 281 278 284 289 286 290 287 281 283 288 285 292 294 292 290 287 280 284 286 283 280 281 279 265 241 225 228 226 228 229 226 239 188 185